Location: Rumah Long Bangan
(2.8362°N, 113.7519°E)
Time: 19:09:03
(UTC+00:00)

Cosmos 1821 Rocket - Pass Details

Date: 24 October 2021
Orbit: 944 x 1005 km, 82.9° (Epoch: 08 December)

Event Time Altitude Azimuth Distance (km) Brightness Sun altitude
Rises 21:21:16 0° 359° (N) 3,612 6.8 -12.3°
Reaches altitude 10° 21:23:46 10° 0° (N) 2,663 6.2 -11.7°
Maximum altitude 21:29:50 80° 87° (E) 959 4.1 -10.2°
Drops below altitude 10° 21:35:54 10° 174° (S) 2,661 6.5 -8.7°
Sets 21:38:24 0° 174° (S) 3,609 7.2 -8.1°
